This is the latest recevied weather packets stored in our database for station/object YN1JLX-13. If no packets are shown the sender has not sent any weather packets the latest 10 day(s).
| Time | Temp. | Humidity | Pressure | Rain* | Wind** | Luminosity | Snow |
|---|---|---|---|---|---|---|---|
| 1778288866 | 24.44° C | 41% | 1007 hPa | 0 mm | - | - | - |
| 1778288266 | 25.56° C | 41% | 1007 hPa | 0 mm | - | - | - |
| 1778287065 | 26.11° C | 41% | 1007 hPa | 0 mm | - | - | - |
| 1778286465 | 26.67° C | 41% | 1006 hPa | 0 mm | - | - | - |
| 1778285865 | 26.67° C | 41% | 1006 hPa | 0 mm | - | - | - |
| 1778284064 | 27.22° C | 40% | 1006 hPa | 0 mm | - | - | - |
| 1778283463 | 26.11° C | 37% | 1006 hPa | 0 mm | - | - | - |
| 1778282863 | 27.22° C | 36% | 1006 hPa | 0 mm | - | - | - |
| 1778282263 | 27.22° C | 36% | 1006 hPa | 0 mm | - | - | - |
| 1778279862 | 27.22° C | 36% | 1006 hPa | 0 mm | - | - | - |
| 1778279262 | 27.78° C | 36% | 1006 hPa | 0 mm | - | - | - |
| 1778278661 | 27.78° C | 36% | 1006 hPa | 0 mm | - | - | - |
| 1778276260 | 29.44° C | 36% | 1006 hPa | 0 mm | - | - | - |
| 1778272658 | 29.44° C | 33% | 1006 hPa | 0 mm | - | - | - |
| 1778272058 | 28.89° C | 34% | 1007 hPa | 0 mm | - | - | - |
| 1778271457 | 28.89° C | 33% | 1007 hPa | 0 mm | - | - | - |
| 1778270857 | 30° C | 33% | 1007 hPa | 0 mm | - | - | - |
| 1778269056 | 30° C | 37% | 1008 hPa | 0 mm | - | - | - |
| 1778268456 | 30° C | 37% | 1008 hPa | 0 mm | - | - | - |
| 1778267855 | 28.33° C | 37% | 1008 hPa | 0 mm | - | - | - |
| 1778267255 | 28.33° C | 37% | 1008 hPa | 0 mm | - | - | - |
| 1778266655 | 28.89° C | 37% | 1008 hPa | 0 mm | - | - | - |
| 1778265454 | 28.33° C | 41% | 1010 hPa | 0 mm | - | - | - |
| 1778264854 | 28.33° C | 41% | 1010 hPa | 0 mm | - | - | - |
| 1778264253 | 28.89° C | 43% | 1010 hPa | 0 mm | - | - | - |
* Rain latest hour (hover to see other rain measurements)
** Current wind speed in m/s (hover to see current wind gust speed)